Time,TemperatureF,DewpointF,PressureIn,WindDirection,WindDirectionDegrees,WindSpeedMPH,WindSpeedGustMPH,Humidity,HourlyPrecipIn,Conditions,Clouds,dailyrainin,SolarRadiationWatts/m^2,SoftwareType,DateUTC
2013-02-05 00:00:00,30.3,6.6,30.02,NNE,22,4.0,11.0,36,0.00,,,0.00,0,WeatherCatV1.12B45,2013-02-05 07:00:00,
2013-02-05 00:05:00,29.3,6.9,30.02,NNW,338,1.0,6.0,38,0.00,,,0.00,0,WeatherCatV1.12B45,2013-02-05 07:05:00,
2013-02-05 00:10:00,29.3,6.9,30.02,NNW,338,1.0,6.0,38,0.00,,,0.00,0,WeatherCatV1.12B45,2013-02-05 07:10:00,
2013-02-05 00:15:00,29.3,6.9,30.02,NNW,338,1.0,6.0,38,0.00,,,0.00,0,WeatherCatV1.12B45,2013-02-05 07:15:00,
2013-02-05 00:20:00,30.6,7.4,30.03,NW,315,6.0,16.0,37,0.00,,,0.00,0,WeatherCatV1.12B45,2013-02-05 07:20:00,
2013-02-05 00:25:00,30.6,7.4,30.03,NW,315,6.0,16.0,37,0.00,,,0.00,0,WeatherCatV1.12B45,2013-02-05 07:25:00,
2013-02-05 00:30:00,30.6,7.4,30.03,NW,315,6.0,16.0,37,0.00,,,0.00,0,WeatherCatV1.12B45,2013-02-05 07:30:00,
2013-02-05 00:35:00,29.0,7.2,30.03,NNW,338,6.0,16.0,39,0.00,,,0.00,0,WeatherCatV1.12B45,2013-02-05 07:35:00,
2013-02-05 00:40:00,29.0,7.2,30.03,NNW,338,6.0,16.0,39,0.00,,,0.00,0,WeatherCatV1.12B45,2013-02-05 07:40:00,
2013-02-05 00:45:00,29.0,7.2,30.03,NNW,338,6.0,16.0,39,0.00,,,0.00,0,WeatherCatV1.12B45,2013-02-05 07:45:00,
2013-02-05 00:50:00,27.6,7.5,30.04,SW,225,3.0,8.0,42,0.00,,,0.00,0,WeatherCatV1.12B45,2013-02-05 07:50:00,
2013-02-05 00:55:00,27.6,7.5,30.04,SW,225,3.0,8.0,42,0.00,,,0.00,0,WeatherCatV1.12B45,2013-02-05 07:55:00,
2013-02-05 01:00:00,27.6,7.5,30.04,SW,225,3.0,8.0,42,0.00,,,0.00,0,WeatherCatV1.12B45,2013-02-05 08:00:00,
2013-02-05 01:05:00,27.0,8.0,30.03,WNW,292,1.0,5.0,44,0.00,,,0.00,0,WeatherCatV1.12B45,2013-02-05 08:05:00,
2013-02-05 01:10:00,27.0,8.0,30.03,WNW,292,1.0,5.0,44,0.00,,,0.00,0,WeatherCatV1.12B45,2013-02-05 08:10:00,
2013-02-05 01:15:00,27.0,8.0,30.03,WNW,292,1.0,5.0,44,0.00,,,0.00,0,WeatherCatV1.12B45,2013-02-05 08:15:00,
2013-02-05 01:20:00,26.9,8.4,30.03,WNW,292,1.0,13.0,45,0.00,,,0.00,0,WeatherCatV1.12B45,2013-02-05 08:20:00,
2013-02-05 01:25:00,26.9,8.4,30.03,WNW,292,1.0,13.0,45,0.00,,,0.00,0,WeatherCatV1.12B45,2013-02-05 08:25:00,
2013-02-05 01:30:00,26.9,8.4,30.03,WNW,292,1.0,13.0,45,0.00,,,0.00,0,WeatherCatV1.12B45,2013-02-05 08:30:00,
2013-02-05 01:35:00,26.6,8.1,30.03,SSW,202,1.0,6.0,45,0.00,,,0.00,0,WeatherCatV1.12B45,2013-02-05 08:35:00,
2013-02-05 01:40:00,26.6,8.1,30.03,SSW,202,1.0,6.0,45,0.00,,,0.00,0,WeatherCatV1.12B45,2013-02-05 08:40:00,
2013-02-05 01:45:00,26.6,8.1,30.03,SSW,202,1.0,6.0,45,0.00,,,0.00,0,WeatherCatV1.12B45,2013-02-05 08:45:00,
2013-02-05 01:50:00,26.6,8.1,30.03,SSW,202,1.0,6.0,45,0.00,,,0.00,0,WeatherCatV1.12B45,2013-02-05 08:50:00,
2013-02-05 01:55:00,26.1,8.2,30.03,NNW,338,2.0,8.0,46,0.00,,,0.00,0,WeatherCatV1.12B45,2013-02-05 08:55:00,
2013-02-05 02:00:00,26.1,8.2,30.03,NNW,338,2.0,8.0,46,0.00,,,0.00,0,WeatherCatV1.12B45,2013-02-05 09:00:00,
2013-02-05 02:05:00,26.1,8.2,30.03,NNW,338,2.0,8.0,46,0.00,,,0.00,0,WeatherCatV1.12B45,2013-02-05 09:05:00,
2013-02-05 02:10:00,25.4,8.5,30.05,NNW,338,1.0,5.0,48,0.00,,,0.00,0,WeatherCatV1.12B45,2013-02-05 09:10:00,
2013-02-05 02:15:00,25.4,8.5,30.05,NNW,338,1.0,5.0,48,0.00,,,0.00,0,WeatherCatV1.12B45,2013-02-05 09:15:00,
2013-02-05 02:20:00,25.4,8.5,30.05,NNW,338,1.0,5.0,48,0.00,,,0.00,0,WeatherCatV1.12B45,2013-02-05 09:20:00,
2013-02-05 02:25:00,25.6,8.2,30.05,NW,315,1.0,6.0,47,0.00,,,0.00,0,WeatherCatV1.12B45,2013-02-05 09:25:00,
2013-02-05 02:30:00,25.6,8.2,30.05,NW,315,1.0,6.0,47,0.00,,,0.00,0,WeatherCatV1.12B45,2013-02-05 09:30:00,
2013-02-05 02:35:00,25.6,8.2,30.05,NW,315,1.0,6.0,47,0.00,,,0.00,0,WeatherCatV1.12B45,2013-02-05 09:35:00,
2013-02-05 02:40:00,25.4,8.0,30.06,NW,315,0.0,0.0,47,0.00,,,0.00,0,WeatherCatV1.12B45,2013-02-05 09:40:00,
2013-02-05 02:45:00,25.4,8.0,30.06,NW,315,0.0,0.0,47,0.00,,,0.00,0,WeatherCatV1.12B45,2013-02-05 09:45:00,
2013-02-05 02:50:00,25.4,8.0,30.06,NW,315,0.0,0.0,47,0.00,,,0.00,0,WeatherCatV1.12B45,2013-02-05 09:50:00,
2013-02-05 02:55:00,24.7,7.8,30.06,NW,315,0.0,6.0,48,0.00,,,0.00,0,WeatherCatV1.12B45,2013-02-05 09:55:00,
2013-02-05 03:00:00,24.7,7.8,30.06,NW,315,0.0,6.0,48,0.00,,,0.00,0,WeatherCatV1.12B45,2013-02-05 10:00:00,
2013-02-05 03:05:00,24.7,7.8,30.06,NW,315,0.0,6.0,48,0.00,,,0.00,0,WeatherCatV1.12B45,2013-02-05 10:05:00,
2013-02-05 03:10:00,23.8,7.5,30.06,NW,315,3.0,6.0,49,0.00,,,0.00,0,WeatherCatV1.12B45,2013-02-05 10:10:00,
2013-02-05 03:15:00,23.8,7.5,30.06,NW,315,3.0,6.0,49,0.00,,,0.00,0,WeatherCatV1.12B45,2013-02-05 10:15:00,
2013-02-05 03:20:00,23.8,7.5,30.06,NW,315,3.0,6.0,49,0.00,,,0.00,0,WeatherCatV1.12B45,2013-02-05 10:20:00,
2013-02-05 03:25:00,23.5,7.6,30.06,NNW,338,1.0,7.0,50,0.00,,,0.00,0,WeatherCatV1.12B45,2013-02-05 10:25:00,
2013-02-05 03:30:00,23.5,7.6,30.06,NNW,338,1.0,7.0,50,0.00,,,0.00,0,WeatherCatV1.12B45,2013-02-05 10:30:00,
2013-02-05 03:35:00,23.5,7.6,30.06,NNW,338,1.0,7.0,50,0.00,,,0.00,0,WeatherCatV1.12B45,2013-02-05 10:35:00,
2013-02-05 03:40:00,22.7,7.3,30.06,NNW,338,2.0,7.0,51,0.00,,,0.00,0,WeatherCatV1.12B45,2013-02-05 10:40:00,
2013-02-05 03:45:00,22.7,7.3,30.06,NNW,338,2.0,7.0,51,0.00,,,0.00,0,WeatherCatV1.12B45,2013-02-05 10:45:00,
2013-02-05 03:50:00,22.7,7.3,30.06,NNW,338,2.0,7.0,51,0.00,,,0.00,0,WeatherCatV1.12B45,2013-02-05 10:50:00,
2013-02-05 03:55:00,22.1,7.6,30.06,NNW,338,1.0,5.0,53,0.00,,,0.00,0,WeatherCatV1.12B45,2013-02-05 10:55:00,
2013-02-05 04:00:00,22.1,7.6,30.06,NNW,338,1.0,5.0,53,0.00,,,0.00,0,WeatherCatV1.12B45,2013-02-05 11:00:00,
2013-02-05 04:05:00,22.1,7.6,30.06,NNW,338,1.0,5.0,53,0.00,,,0.00,0,WeatherCatV1.12B45,2013-02-05 11:05:00,
2013-02-05 04:10:00,20.6,7.0,30.06,NNW,338,1.0,3.0,55,0.00,,,0.00,0,WeatherCatV1.12B45,2013-02-05 11:10:00,
2013-02-05 04:15:00,20.6,7.0,30.06,NNW,338,1.0,3.0,55,0.00,,,0.00,0,WeatherCatV1.12B45,2013-02-05 11:15:00,
2013-02-05 04:20:00,20.6,7.0,30.06,NNW,338,1.0,3.0,55,0.00,,,0.00,0,WeatherCatV1.12B45,2013-02-05 11:20:00,
2013-02-05 04:25:00,20.2,7.1,30.06,NNW,338,1.0,5.0,56,0.00,,,0.00,0,WeatherCatV1.12B45,2013-02-05 11:25:00,
2013-02-05 04:30:00,20.2,7.1,30.06,NNW,338,1.0,5.0,56,0.00,,,0.00,0,WeatherCatV1.12B45,2013-02-05 11:30:00,
2013-02-05 04:35:00,20.2,7.1,30.06,NNW,338,1.0,5.0,56,0.00,,,0.00,0,WeatherCatV1.12B45,2013-02-05 11:35:00,
2013-02-05 04:40:00,20.8,7.2,30.06,NNW,338,0.0,1.0,55,0.00,,,0.00,0,WeatherCatV1.12B45,2013-02-05 11:40:00,
2013-02-05 04:54:00,20.8,7.2,30.06,NNW,338,0.0,1.0,55,0.00,,,0.00,0,WeatherCatV1.12B45,2013-02-05 11:54:00,
2013-02-05 04:59:00,20.6,7.8,30.06,NNW,346,0.0,0.0,57,0.00,,,0.00,0,WeatherCatV1.12B45,2013-02-05 11:59:00,
2013-02-05 05:04:00,21.1,7.9,30.06,NNW,346,0.0,0.0,56,0.00,,,0.00,0,WeatherCatV1.12B45,2013-02-05 12:04:00,
2013-02-05 05:09:00,21.6,7.6,30.06,NNW,346,0.0,0.0,54,0.00,,,0.00,0,WeatherCatV1.12B45,2013-02-05 12:09:00,
2013-02-05 05:14:00,22.1,7.2,30.06,NNW,346,0.0,1.0,52,0.00,,,0.00,0,WeatherCatV1.12B45,2013-02-05 12:14:00,
2013-02-05 05:19:00,22.2,7.3,30.06,NNW,346,0.0,2.0,52,0.00,,,0.00,0,WeatherCatV1.12B45,2013-02-05 12:19:00,
2013-02-05 05:24:00,21.9,7.0,30.06,NNW,346,0.0,0.0,52,0.00,,,0.00,0,WeatherCatV1.12B45,2013-02-05 12:24:00,
2013-02-05 05:29:00,21.4,7.0,30.06,NNW,346,0.0,0.0,53,0.00,,,0.00,0,WeatherCatV1.12B45,2013-02-05 12:29:00,
2013-02-05 05:34:00,21.3,6.9,30.06,NNW,346,0.0,0.0,53,0.00,,,0.00,0,WeatherCatV1.12B45,2013-02-05 12:34:00,
2013-02-05 05:39:00,21.0,6.6,30.06,NNW,346,0.0,0.0,53,0.00,,,0.00,0,WeatherCatV1.12B45,2013-02-05 12:39:00,
2013-02-05 05:44:00,20.6,6.6,30.07,NNW,346,0.0,0.0,54,0.00,,,0.00,0,WeatherCatV1.12B45,2013-02-05 12:44:00,
2013-02-05 05:49:00,20.3,6.7,30.07,NNW,346,0.0,0.0,55,0.00,,,0.00,0,WeatherCatV1.12B45,2013-02-05 12:49:00,
2013-02-05 05:54:00,20.2,6.7,30.07,NNW,346,0.0,0.0,55,0.00,,,0.00,0,WeatherCatV1.12B45,2013-02-05 12:54:00,
2013-02-05 05:59:00,19.5,6.4,30.08,NNW,346,3.0,5.0,56,0.00,,,0.00,0,WeatherCatV1.12B45,2013-02-05 12:59:00,
2013-02-05 06:04:00,19.1,6.4,30.08,NNW,346,2.0,5.0,57,0.00,,,0.00,0,WeatherCatV1.12B45,2013-02-05 13:04:00,
2013-02-05 06:09:00,19.1,6.8,30.08,NNW,346,0.0,3.0,58,0.00,,,0.00,0,WeatherCatV1.12B45,2013-02-05 13:09:00,
2013-02-05 06:14:00,19.1,6.8,30.08,NNW,346,5.0,5.0,58,0.00,,,0.00,0,WeatherCatV1.12B45,2013-02-05 13:14:00,
2013-02-05 06:19:00,19.1,6.8,30.08,NNW,346,4.0,5.0,58,0.00,,,0.00,0,WeatherCatV1.12B45,2013-02-05 13:19:00,
2013-02-05 06:24:00,18.9,6.6,30.08,NNW,346,0.0,3.0,58,0.00,,,0.00,0,WeatherCatV1.12B45,2013-02-05 13:24:00,
2013-02-05 06:29:00,19.2,6.5,30.08,NNW,346,0.0,0.0,57,0.00,,,0.00,0,WeatherCatV1.12B45,2013-02-05 13:29:00,
2013-02-05 06:34:00,19.9,6.8,30.08,NNW,346,0.0,0.0,56,0.00,,,0.00,0,WeatherCatV1.12B45,2013-02-05 13:34:00,
2013-02-05 06:39:00,19.7,6.6,30.08,NNW,346,0.0,3.0,56,0.00,,,0.00,0,WeatherCatV1.12B45,2013-02-05 13:39:00,
2013-02-05 06:44:00,19.2,6.5,30.08,NNW,346,2.0,3.0,57,0.00,,,0.00,0,WeatherCatV1.12B45,2013-02-05 13:44:00,
2013-02-05 06:49:00,18.8,6.5,30.08,NNW,346,0.0,0.0,58,0.00,,,0.00,0,WeatherCatV1.12B45,2013-02-05 13:49:00,
2013-02-05 06:54:00,18.4,6.5,30.08,NNW,346,0.0,0.0,59,0.00,,,0.00,0,WeatherCatV1.12B45,2013-02-05 13:54:00,
2013-02-05 06:59:00,18.3,6.0,30.08,NNW,346,3.0,3.0,58,0.00,,,0.00,0,WeatherCatV1.12B45,2013-02-05 13:59:00,
2013-02-05 07:04:00,18.1,6.2,30.08,NNW,346,2.0,3.0,59,0.00,,,0.00,5,WeatherCatV1.12B45,2013-02-05 14:04:00,
2013-02-05 07:09:00,18.1,6.2,30.08,NNW,346,0.0,0.0,59,0.00,,,0.00,7,WeatherCatV1.12B45,2013-02-05 14:09:00,
2013-02-05 07:14:00,18.0,6.1,30.08,NNW,346,0.0,0.0,59,0.00,,,0.00,11,WeatherCatV1.12B45,2013-02-05 14:14:00,
2013-02-05 07:19:00,17.8,5.9,30.08,NNW,346,0.0,0.0,59,0.00,,,0.00,12,WeatherCatV1.12B45,2013-02-05 14:19:00,
2013-02-05 07:24:00,17.8,5.9,30.08,NNW,346,0.0,0.0,59,0.00,,,0.00,14,WeatherCatV1.12B45,2013-02-05 14:24:00,
2013-02-05 07:29:00,18.1,5.8,30.09,NNW,346,0.0,0.0,58,0.00,,,0.00,21,WeatherCatV1.12B45,2013-02-05 14:29:00,
2013-02-05 07:34:00,18.6,6.3,30.09,NNW,346,0.0,0.0,58,0.00,,,0.00,67,WeatherCatV1.12B45,2013-02-05 14:34:00,
2013-02-05 07:39:00,19.2,6.5,30.09,NNW,346,0.0,0.0,57,0.00,,,0.00,83,WeatherCatV1.12B45,2013-02-05 14:39:00,
2013-02-05 07:44:00,20.2,7.0,30.09,NNW,346,0.0,0.0,56,0.00,,,0.00,99,WeatherCatV1.12B45,2013-02-05 14:44:00,
2013-02-05 07:49:00,21.3,6.9,30.09,NNW,346,0.0,0.0,53,0.00,,,0.00,118,WeatherCatV1.12B45,2013-02-05 14:49:00,
2013-02-05 07:54:00,22.9,7.5,30.09,NNW,346,0.0,0.0,51,0.00,,,0.00,130,WeatherCatV1.12B45,2013-02-05 14:54:00,
2013-02-05 07:59:00,24.1,7.7,30.09,NNW,346,0.0,0.0,49,0.00,,,0.00,123,WeatherCatV1.12B45,2013-02-05 14:59:00,
2013-02-05 08:04:00,25.0,9.0,30.09,NNW,346,0.0,5.0,50,0.00,,,0.00,116,WeatherCatV1.12B45,2013-02-05 15:04:00,
2013-02-05 08:09:00,25.4,7.5,30.09,WSW,257,3.0,3.0,46,0.00,,,0.00,172,WeatherCatV1.12B45,2013-02-05 15:09:00,
2013-02-05 08:14:00,26.4,8.5,30.09,West,267,0.0,0.0,46,0.00,,,0.00,195,WeatherCatV1.12B45,2013-02-05 15:14:00,
2013-02-05 08:19:00,27.6,8.1,30.09,West,267,0.0,0.0,43,0.00,,,0.00,188,WeatherCatV1.12B45,2013-02-05 15:19:00,
2013-02-05 08:24:00,28.8,8.6,30.09,West,267,0.0,0.0,42,0.00,,,0.00,227,WeatherCatV1.12B45,2013-02-05 15:24:00,
2013-02-05 08:29:00,30.0,8.6,30.09,West,267,0.0,3.0,40,0.00,,,0.00,245,WeatherCatV1.12B45,2013-02-05 15:29:00,
2013-02-05 08:34:00,30.7,8.1,30.09,NW,322,3.0,6.0,38,0.00,,,0.00,259,WeatherCatV1.12B45,2013-02-05 15:34:00,
2013-02-05 08:39:00,31.2,8.0,30.09,NW,322,0.0,2.0,37,0.00,,,0.00,273,WeatherCatV1.12B45,2013-02-05 15:39:00,
2013-02-05 08:44:00,32.1,8.8,30.09,NW,323,3.0,5.0,37,0.00,,,0.00,287,WeatherCatV1.12B45,2013-02-05 15:44:00,
2013-02-05 08:49:00,32.9,7.6,30.09,NW,305,1.0,4.0,34,0.00,,,0.00,303,WeatherCatV1.12B45,2013-02-05 15:49:00,
2013-02-05 08:54:00,33.1,8.5,30.09,WNW,302,0.0,0.0,35,0.00,,,0.00,313,WeatherCatV1.12B45,2013-02-05 15:54:00,
2013-02-05 08:59:00,33.4,8.1,30.09,WNW,302,0.0,0.0,34,0.00,,,0.00,333,WeatherCatV1.12B45,2013-02-05 15:59:00,
2013-02-05 09:04:00,34.6,7.8,30.09,WNW,299,0.0,4.0,32,0.00,,,0.00,347,WeatherCatV1.12B45,2013-02-05 16:04:00,
2013-02-05 09:09:00,35.8,7.4,30.09,WNW,299,2.0,3.0,30,0.00,,,0.00,361,WeatherCatV1.12B45,2013-02-05 16:09:00,
2013-02-05 09:14:00,36.6,6.6,30.10,WNW,299,0.0,2.0,28,0.00,,,0.00,355,WeatherCatV1.12B45,2013-02-05 16:14:00,
2013-02-05 09:19:00,36.6,6.6,30.10,South,185,3.0,8.0,28,0.00,,,0.00,387,WeatherCatV1.12B45,2013-02-05 16:19:00,
2013-02-05 09:24:00,36.9,7.6,30.10,SSE,161,6.0,8.0,29,0.00,,,0.00,401,WeatherCatV1.12B45,2013-02-05 16:24:00,
2013-02-05 09:29:00,37.0,7.0,30.10,SSE,158,3.0,6.0,28,0.00,,,0.00,413,WeatherCatV1.12B45,2013-02-05 16:29:00,
2013-02-05 09:34:00,37.6,7.5,30.10,SSE,157,0.0,3.0,28,0.00,,,0.00,426,WeatherCatV1.12B45,2013-02-05 16:34:00,
2013-02-05 09:39:00,38.2,7.2,30.10,SSE,157,0.0,2.0,27,0.00,,,0.00,436,WeatherCatV1.12B45,2013-02-05 16:39:00,
2013-02-05 09:44:00,38.9,7.8,30.10,SSE,151,2.0,4.0,27,0.00,,,0.00,450,WeatherCatV1.12B45,2013-02-05 16:44:00,
2013-02-05 09:49:00,39.3,8.1,30.10,SSE,151,0.0,2.0,27,0.00,,,0.00,461,WeatherCatV1.12B45,2013-02-05 16:49:00,
2013-02-05 09:54:00,39.5,7.5,30.10,SSE,147,0.0,0.0,26,0.00,,,0.00,473,WeatherCatV1.12B45,2013-02-05 16:54:00,
2013-02-05 09:59:00,39.5,7.5,30.10,SSE,147,0.0,2.0,26,0.00,,,0.00,484,WeatherCatV1.12B45,2013-02-05 16:59:00,
2013-02-05 10:04:00,39.8,7.7,30.10,SE,136,0.0,6.0,26,0.00,,,0.00,496,WeatherCatV1.12B45,2013-02-05 17:04:00,
2013-02-05 10:09:00,40.3,7.3,30.10,ESE,123,1.0,2.0,25,0.00,,,0.00,505,WeatherCatV1.12B45,2013-02-05 17:09:00,
2013-02-05 10:14:00,40.8,8.6,30.10,ESE,123,0.0,3.0,26,0.00,,,0.00,516,WeatherCatV1.12B45,2013-02-05 17:14:00,
2013-02-05 10:19:00,40.9,6.9,30.10,East,99,2.0,4.0,24,0.00,,,0.00,524,WeatherCatV1.12B45,2013-02-05 17:19:00,
2013-02-05 10:24:00,41.3,8.2,30.10,East,99,0.0,0.0,25,0.00,,,0.00,533,WeatherCatV1.12B45,2013-02-05 17:24:00,
2013-02-05 10:29:00,41.5,7.4,30.10,East,99,5.0,7.0,24,0.00,,,0.00,545,WeatherCatV1.12B45,2013-02-05 17:29:00,
2013-02-05 10:34:00,41.6,7.5,30.10,East,99,0.0,0.0,24,0.00,,,0.00,551,WeatherCatV1.12B45,2013-02-05 17:34:00,
2013-02-05 10:39:00,42.3,8.1,30.10,East,99,0.0,1.0,24,0.00,,,0.00,561,WeatherCatV1.12B45,2013-02-05 17:39:00,
2013-02-05 10:45:00,42.6,8.4,30.09,East,99,4.0,6.0,24,0.00,,,0.00,568,WeatherCatV1.12B45,2013-02-05 17:45:00,
2013-02-05 10:49:00,42.6,7.4,30.09,SSE,150,4.0,7.0,23,0.00,,,0.00,575,WeatherCatV1.12B45,2013-02-05 17:49:00,
2013-02-05 10:55:00,42.5,8.3,30.09,SSE,152,2.0,6.0,24,0.00,,,0.00,582,WeatherCatV1.12B45,2013-02-05 17:55:00,
2013-02-05 11:00:00,42.8,8.5,30.09,SE,144,3.0,7.0,24,0.00,,,0.00,588,WeatherCatV1.12B45,2013-02-05 18:00:00,
2013-02-05 11:04:00,42.6,9.3,30.09,South,169,9.0,9.0,25,0.00,,,0.00,595,WeatherCatV1.12B45,2013-02-05 18:04:00,
2013-02-05 11:10:00,42.9,8.6,30.09,South,169,0.0,3.0,24,0.00,,,0.00,598,WeatherCatV1.12B45,2013-02-05 18:10:00,
2013-02-05 11:14:00,43.1,7.9,30.08,South,181,3.0,8.0,23,0.00,,,0.00,604,WeatherCatV1.12B45,2013-02-05 18:14:00,
2013-02-05 11:19:00,43.6,8.3,30.08,South,178,2.0,5.0,23,0.00,,,0.00,609,WeatherCatV1.12B45,2013-02-05 18:19:00,
2013-02-05 11:25:00,43.6,8.3,30.08,SSE,148,7.0,8.0,23,0.00,,,0.00,614,WeatherCatV1.12B45,2013-02-05 18:25:00,
2013-02-05 11:30:00,43.8,8.4,30.08,SSE,147,2.0,5.0,23,0.00,,,0.00,619,WeatherCatV1.12B45,2013-02-05 18:30:00,
2013-02-05 11:35:00,44.2,7.8,30.08,SE,143,4.0,6.0,22,0.00,,,0.00,623,WeatherCatV1.12B45,2013-02-05 18:35:00,
2013-02-05 11:39:00,44.8,8.3,30.08,SE,143,0.0,0.0,22,0.00,,,0.00,626,WeatherCatV1.12B45,2013-02-05 18:39:00,
2013-02-05 11:45:00,45.1,7.5,30.07,SE,141,0.0,5.0,21,0.00,,,0.00,630,WeatherCatV1.12B45,2013-02-05 18:45:00,
2013-02-05 11:50:00,45.7,9.1,30.07,ESE,119,2.0,5.0,22,0.00,,,0.00,630,WeatherCatV1.12B45,2013-02-05 18:50:00,
2013-02-05 11:55:00,46.1,9.4,30.07,SE,145,5.0,11.0,22,0.00,,,0.00,633,WeatherCatV1.12B45,2013-02-05 18:55:00,
2013-02-05 12:00:00,46.1,8.4,30.06,ESE,114,1.0,8.0,21,0.00,,,0.00,635,WeatherCatV1.12B45,2013-02-05 19:00:00,
2013-02-05 12:05:00,46.4,8.6,30.06,ESE,113,7.0,7.0,21,0.00,,,0.00,635,WeatherCatV1.12B45,2013-02-05 19:05:00,
2013-02-05 12:10:00,46.4,8.6,30.06,ESE,119,6.0,8.0,21,0.00,,,0.00,637,WeatherCatV1.12B45,2013-02-05 19:10:00,
2013-02-05 12:15:00,46.4,7.5,30.05,SE,130,6.0,9.0,20,0.00,,,0.00,639,WeatherCatV1.12B45,2013-02-05 19:15:00,
2013-02-05 12:20:00,46.4,9.6,30.05,ESE,119,3.0,7.0,22,0.00,,,0.00,667,WeatherCatV1.12B45,2013-02-05 19:20:00,
2013-02-05 12:25:00,46.1,8.4,30.05,SE,124,0.0,6.0,21,0.00,,,0.00,667,WeatherCatV1.12B45,2013-02-05 19:25:00,
2013-02-05 12:30:00,46.5,9.7,30.04,ESE,121,0.0,1.0,22,0.00,,,0.00,667,WeatherCatV1.12B45,2013-02-05 19:30:00,
2013-02-05 12:35:00,47.1,9.2,30.04,ESE,121,3.0,9.0,21,0.00,,,0.00,665,WeatherCatV1.12B45,2013-02-05 19:35:00,
2013-02-05 12:40:00,47.4,9.5,30.04,East,92,3.0,3.0,21,0.00,,,0.00,663,WeatherCatV1.12B45,2013-02-05 19:40:00,
2013-02-05 12:45:00,47.6,9.6,30.03,East,90,7.0,11.0,21,0.00,,,0.00,660,WeatherCatV1.12B45,2013-02-05 19:45:00,
2013-02-05 12:50:00,47.1,9.2,30.03,ESE,114,1.0,6.0,21,0.00,,,0.00,656,WeatherCatV1.12B45,2013-02-05 19:50:00,
2013-02-05 12:55:00,47.3,9.4,30.03,ESE,117,7.0,11.0,21,0.00,,,0.00,655,WeatherCatV1.12B45,2013-02-05 19:55:00,
2013-02-05 13:00:00,47.3,8.3,30.03,SE,124,11.0,12.0,20,0.00,,,0.00,649,WeatherCatV1.12B45,2013-02-05 20:00:00,
2013-02-05 13:05:00,46.7,8.9,30.03,SE,137,7.0,11.0,21,0.00,,,0.00,644,WeatherCatV1.12B45,2013-02-05 20:05:00,
2013-02-05 13:10:00,46.2,8.4,30.03,SSE,147,9.0,12.0,21,0.00,,,0.00,639,WeatherCatV1.12B45,2013-02-05 20:10:00,
2013-02-05 13:15:00,46.7,8.9,30.03,SSE,154,7.0,13.0,21,0.00,,,0.00,635,WeatherCatV1.12B45,2013-02-05 20:15:00,
2013-02-05 13:20:00,46.8,7.9,30.03,SSE,158,6.0,8.0,20,0.00,,,0.00,628,WeatherCatV1.12B45,2013-02-05 20:20:00,
2013-02-05 13:25:00,47.0,9.1,30.03,SSE,161,7.0,11.0,21,0.00,,,0.00,623,WeatherCatV1.12B45,2013-02-05 20:25:00,
2013-02-05 13:30:00,47.0,9.1,30.02,SSE,168,3.0,8.0,21,0.00,,,0.00,618,WeatherCatV1.12B45,2013-02-05 20:30:00,
2013-02-05 13:35:00,46.8,9.0,30.02,SE,138,8.0,11.0,21,0.00,,,0.00,609,WeatherCatV1.12B45,2013-02-05 20:35:00,
2013-02-05 13:40:00,46.5,8.7,30.02,SE,136,5.0,8.0,21,0.00,,,0.00,602,WeatherCatV1.12B45,2013-02-05 20:40:00,
2013-02-05 13:45:00,46.7,8.9,30.02,SE,136,5.0,7.0,21,0.00,,,0.00,595,WeatherCatV1.12B45,2013-02-05 20:45:00,
2013-02-05 13:50:00,46.7,8.9,30.02,SSE,158,5.0,8.0,21,0.00,,,0.00,584,WeatherCatV1.12B45,2013-02-05 20:50:00,
2013-02-05 13:55:00,46.8,9.0,30.02,SSE,152,7.0,8.0,21,0.00,,,0.00,577,WeatherCatV1.12B45,2013-02-05 20:55:00,
2013-02-05 14:00:00,47.0,8.0,30.01,SE,144,7.0,8.0,20,0.00,,,0.00,568,WeatherCatV1.12B45,2013-02-05 21:00:00,
2013-02-05 14:05:00,46.7,7.8,30.01,SE,134,2.0,5.0,20,0.00,,,0.00,558,WeatherCatV1.12B45,2013-02-05 21:05:00,
2013-02-05 14:10:00,46.7,8.9,30.01,SE,145,4.0,7.0,21,0.00,,,0.00,551,WeatherCatV1.12B45,2013-02-05 21:10:00,
2013-02-05 14:15:00,46.4,8.6,30.01,SE,144,3.0,6.0,21,0.00,,,0.00,538,WeatherCatV1.12B45,2013-02-05 21:15:00,
2013-02-05 14:20:00,46.1,8.4,30.01,SE,136,0.0,5.0,21,0.00,,,0.00,528,WeatherCatV1.12B45,2013-02-05 21:20:00,
2013-02-05 14:25:00,46.2,7.4,30.01,SE,131,3.0,5.0,20,0.00,,,0.00,516,WeatherCatV1.12B45,2013-02-05 21:25:00,
2013-02-05 14:30:00,46.8,7.9,30.01,SE,131,0.0,6.0,20,0.00,,,0.00,505,WeatherCatV1.12B45,2013-02-05 21:30:00,
2013-02-05 14:35:00,47.1,9.2,30.01,SE,131,6.0,6.0,21,0.00,,,0.00,493,WeatherCatV1.12B45,2013-02-05 21:35:00,
2013-02-05 14:40:00,47.3,8.3,30.01,SE,130,1.0,6.0,20,0.00,,,0.00,480,WeatherCatV1.12B45,2013-02-05 21:40:00,
2013-02-05 14:45:00,47.3,9.4,30.00,SE,130,1.0,3.0,21,0.00,,,0.00,468,WeatherCatV1.12B45,2013-02-05 21:45:00,
2013-02-05 14:50:00,48.0,8.9,30.00,ESE,123,6.0,6.0,20,0.00,,,0.00,456,WeatherCatV1.12B45,2013-02-05 21:50:00,
2013-02-05 14:55:00,47.4,9.5,30.00,SE,124,2.0,7.0,21,0.00,,,0.00,442,WeatherCatV1.12B45,2013-02-05 21:55:00,
2013-02-05 15:00:00,47.6,9.6,30.00,SE,134,4.0,7.0,21,0.00,,,0.00,429,WeatherCatV1.12B45,2013-02-05 22:00:00,
2013-02-05 15:05:00,47.4,10.5,30.00,ESE,121,4.0,8.0,22,0.00,,,0.00,415,WeatherCatV1.12B45,2013-02-05 22:05:00,
2013-02-05 15:10:00,47.6,10.7,30.00,SE,126,4.0,8.0,22,0.00,,,0.00,401,WeatherCatV1.12B45,2013-02-05 22:10:00,
2013-02-05 15:15:00,47.4,10.5,30.00,ESE,119,6.0,6.0,22,0.00,,,0.00,387,WeatherCatV1.12B45,2013-02-05 22:15:00,
2013-02-05 15:20:00,47.1,10.2,30.00,ESE,119,0.0,7.0,22,0.00,,,0.00,371,WeatherCatV1.12B45,2013-02-05 22:20:00,
2013-02-05 15:25:00,47.6,10.7,30.00,East,99,1.0,6.0,22,0.00,,,0.00,357,WeatherCatV1.12B45,2013-02-05 22:25:00,
2013-02-05 15:30:00,47.6,10.7,30.00,ESE,109,6.0,7.0,22,0.00,,,0.00,343,WeatherCatV1.12B45,2013-02-05 22:30:00,
2013-02-05 15:35:00,47.7,10.7,30.00,ESE,110,6.0,7.0,22,0.00,,,0.00,329,WeatherCatV1.12B45,2013-02-05 22:35:00,
2013-02-05 15:40:00,47.9,11.9,30.00,ESE,110,7.0,7.0,23,0.00,,,0.00,311,WeatherCatV1.12B45,2013-02-05 22:40:00,
2013-02-05 15:45:00,47.6,11.7,30.00,ESE,107,2.0,6.0,23,0.00,,,0.00,297,WeatherCatV1.12B45,2013-02-05 22:45:00,
2013-02-05 15:50:00,47.7,10.7,30.00,ESE,107,2.0,3.0,22,0.00,,,0.00,283,WeatherCatV1.12B45,2013-02-05 22:50:00,
2013-02-05 15:55:00,47.7,11.7,30.00,ESE,107,3.0,6.0,23,0.00,,,0.00,262,WeatherCatV1.12B45,2013-02-05 22:55:00,
2013-02-05 16:00:00,47.1,12.2,30.00,ESE,104,6.0,8.0,24,0.00,,,0.00,248,WeatherCatV1.12B45,2013-02-05 23:00:00,
2013-02-05 16:05:00,46.4,11.6,30.00,ESE,102,2.0,9.0,24,0.00,,,0.00,229,WeatherCatV1.12B45,2013-02-05 23:05:00,
2013-02-05 16:10:00,46.0,11.3,30.00,ESE,102,1.0,6.0,24,0.00,,,0.00,218,WeatherCatV1.12B45,2013-02-05 23:10:00,
2013-02-05 16:15:00,46.0,12.2,30.00,East,100,3.0,3.0,25,0.00,,,0.00,202,WeatherCatV1.12B45,2013-02-05 23:15:00,
2013-02-05 16:20:00,46.0,12.2,30.00,East,100,5.0,6.0,25,0.00,,,0.00,187,WeatherCatV1.12B45,2013-02-05 23:20:00,
2013-02-05 16:25:00,45.2,12.4,30.00,East,100,3.0,5.0,26,0.00,,,0.00,83,WeatherCatV1.12B45,2013-02-05 23:25:00,
2013-02-05 16:30:00,44.5,12.6,30.00,East,100,3.0,3.0,27,0.00,,,0.00,21,WeatherCatV1.12B45,2013-02-05 23:30:00,
2013-02-05 16:35:00,44.1,12.3,30.00,East,100,0.0,0.0,27,0.00,,,0.00,19,WeatherCatV1.12B45,2013-02-05 23:35:00,
2013-02-05 16:40:00,43.9,12.1,30.00,SSE,147,2.0,6.0,27,0.00,,,0.00,19,WeatherCatV1.12B45,2013-02-05 23:40:00,
2013-02-05 16:45:00,43.6,12.7,30.00,ENE,64,0.0,0.0,28,0.00,,,0.00,19,WeatherCatV1.12B45,2013-02-05 23:45:00,
2013-02-05 16:50:00,43.1,12.2,30.00,SE,131,9.0,10.0,28,0.00,,,0.00,18,WeatherCatV1.12B45,2013-02-05 23:50:00,
2013-02-05 16:55:00,42.6,11.0,30.00,SW,234,0.0,6.0,27,0.00,,,0.00,18,WeatherCatV1.12B45,2013-02-05 23:55:00,
2013-02-05 17:00:00,42.3,11.5,30.00,West,260,6.0,11.0,28,0.00,,,0.00,16,WeatherCatV1.12B45,2013-02-06 00:00:00,
2013-02-05 17:05:00,42.1,11.4,30.00,SW,232,11.0,11.0,28,0.00,,,0.00,16,WeatherCatV1.12B45,2013-02-06 00:05:00,
2013-02-05 17:10:00,42.2,11.5,30.00,WSW,248,13.0,15.0,28,0.00,,,0.00,14,WeatherCatV1.12B45,2013-02-06 00:10:00,
2013-02-05 17:15:00,42.3,11.5,30.00,West,268,9.0,13.0,28,0.00,,,0.00,12,WeatherCatV1.12B45,2013-02-06 00:15:00,
2013-02-05 17:20:00,42.2,11.5,30.00,WSW,248,2.0,8.0,28,0.00,,,0.00,11,WeatherCatV1.12B45,2013-02-06 00:20:00,
2013-02-05 17:25:00,41.9,12.0,30.00,SSW,206,0.0,0.0,29,0.00,,,0.00,9,WeatherCatV1.12B45,2013-02-06 00:25:00,
2013-02-05 17:30:00,41.8,11.9,30.00,NW,306,3.0,8.0,29,0.00,,,0.00,7,WeatherCatV1.12B45,2013-02-06 00:30:00,
2013-02-05 17:35:00,41.6,11.7,30.00,WNW,295,5.0,6.0,29,0.00,,,0.00,7,WeatherCatV1.12B45,2013-02-06 00:35:00,
2013-02-05 17:40:00,41.5,12.4,30.00,WNW,287,5.0,8.0,30,0.00,,,0.00,0,WeatherCatV1.12B45,2013-02-06 00:40:00,
2013-02-05 17:45:00,41.2,12.1,30.00,WNW,285,5.0,12.0,30,0.00,,,0.00,0,WeatherCatV1.12B45,2013-02-06 00:45:00,
2013-02-05 17:50:00,40.8,12.5,30.00,West,261,5.0,12.0,31,0.00,,,0.00,0,WeatherCatV1.12B45,2013-02-06 00:50:00,
2013-02-05 17:55:00,40.6,12.4,30.00,WSW,237,4.0,17.0,31,0.00,,,0.00,0,WeatherCatV1.12B45,2013-02-06 00:55:00,
2013-02-05 18:00:00,40.3,12.8,30.00,WSW,246,11.0,11.0,32,0.00,,,0.00,0,WeatherCatV1.12B45,2013-02-06 01:00:00,
2013-02-05 18:05:00,39.9,13.2,30.00,NW,319,2.0,7.0,33,0.00,,,0.00,0,WeatherCatV1.12B45,2013-02-06 01:05:00,
2013-02-05 18:10:00,39.5,12.8,30.00,WNW,285,10.0,11.0,33,0.00,,,0.00,0,WeatherCatV1.12B45,2013-02-06 01:10:00,
2013-02-05 18:15:00,39.2,13.2,30.01,West,268,3.0,6.0,34,0.00,,,0.00,0,WeatherCatV1.12B45,2013-02-06 01:15:00,
2013-02-05 18:20:00,38.8,13.5,30.01,WNW,295,10.0,10.0,35,0.00,,,0.00,0,WeatherCatV1.12B45,2013-02-06 01:20:00,
2013-02-05 18:25:00,38.6,13.3,30.01,NW,304,3.0,7.0,35,0.00,,,0.00,0,WeatherCatV1.12B45,2013-02-06 01:25:00,
2013-02-05 18:30:00,38.6,13.3,30.00,WNW,298,7.0,12.0,35,0.00,,,0.00,0,WeatherCatV1.12B45,2013-02-06 01:30:00,
2013-02-05 18:35:00,39.3,12.6,30.00,NW,311,8.0,13.0,33,0.00,,,0.00,0,WeatherCatV1.12B45,2013-02-06 01:35:00,
2013-02-05 18:40:00,39.8,13.1,30.00,NW,316,9.0,9.0,33,0.00,,,0.00,0,WeatherCatV1.12B45,2013-02-06 01:40:00,
2013-02-05 18:45:00,39.9,13.2,30.01,NW,319,11.0,13.0,33,0.00,,,0.00,0,WeatherCatV1.12B45,2013-02-06 01:45:00,
2013-02-05 18:50:00,40.1,13.3,30.01,NW,312,11.0,11.0,33,0.00,,,0.00,0,WeatherCatV1.12B45,2013-02-06 01:50:00,
2013-02-05 18:55:00,40.2,12.7,30.01,West,280,2.0,7.0,32,0.00,,,0.00,0,WeatherCatV1.12B45,2013-02-06 01:55:00,
2013-02-05 19:00:00,39.8,13.1,30.01,SW,215,0.0,0.0,33,0.00,,,0.00,0,WeatherCatV1.12B45,2013-02-06 02:00:00,
2013-02-05 19:05:00,38.8,13.5,30.01,SSW,212,3.0,4.0,35,0.00,,,0.00,0,WeatherCatV1.12B45,2013-02-06 02:05:00,
2013-02-05 19:10:00,37.6,13.1,30.01,South,178,0.0,0.0,36,0.00,,,0.00,0,WeatherCatV1.12B45,2013-02-06 02:10:00,
2013-02-05 19:15:00,36.8,13.6,30.02,South,179,0.0,0.0,38,0.00,,,0.00,0,WeatherCatV1.12B45,2013-02-06 02:15:00,
2013-02-05 19:20:00,36.5,13.3,30.02,South,179,0.0,0.0,38,0.00,,,0.00,0,WeatherCatV1.12B45,2013-02-06 02:20:00,
2013-02-05 19:25:00,36.3,13.2,30.02,South,179,0.0,0.0,38,0.00,,,0.00,0,WeatherCatV1.12B45,2013-02-06 02:25:00,
2013-02-05 19:30:00,36.3,13.2,30.02,South,179,3.0,3.0,38,0.00,,,0.00,0,WeatherCatV1.12B45,2013-02-06 02:30:00,
2013-02-05 19:35:00,35.9,14.0,30.02,South,179,0.0,0.0,40,0.00,,,0.00,0,WeatherCatV1.12B45,2013-02-06 02:35:00,
2013-02-05 19:40:00,35.3,13.4,30.02,South,179,0.0,0.0,40,0.00,,,0.00,0,WeatherCatV1.12B45,2013-02-06 02:40:00,
2013-02-05 19:45:00,34.6,13.3,30.01,South,179,0.0,0.0,41,0.00,,,0.00,0,WeatherCatV1.12B45,2013-02-06 02:45:00,
2013-02-05 19:50:00,34.4,13.2,30.01,South,179,0.0,0.0,41,0.00,,,0.00,0,WeatherCatV1.12B45,2013-02-06 02:50:00,
2013-02-05 19:55:00,34.0,13.9,30.01,South,179,0.0,0.0,43,0.00,,,0.00,0,WeatherCatV1.12B45,2013-02-06 02:55:00,
2013-02-05 20:00:00,33.4,13.9,30.01,South,179,0.0,0.0,44,0.00,,,0.00,0,WeatherCatV1.12B45,2013-02-06 03:00:00,
2013-02-05 20:05:00,32.9,13.4,30.01,South,179,0.0,0.0,44,0.00,,,0.00,0,WeatherCatV1.12B45,2013-02-06 03:05:00,
2013-02-05 20:10:00,32.5,14.0,30.01,South,179,2.0,2.0,46,0.00,,,0.00,0,WeatherCatV1.12B45,2013-02-06 03:10:00,
2013-02-05 20:15:00,32.2,14.3,30.01,South,180,0.0,3.0,47,0.00,,,0.00,0,WeatherCatV1.12B45,2013-02-06 03:15:00,
2013-02-05 20:20:00,32.2,14.3,30.01,South,180,0.0,3.0,47,0.00,,,0.00,0,WeatherCatV1.12B45,2013-02-06 03:20:00,
2013-02-05 20:25:00,32.2,14.3,30.01,South,180,0.0,3.0,47,0.00,,,0.00,0,WeatherCatV1.12B45,2013-02-06 03:25:00,
2013-02-05 20:30:00,31.9,14.5,30.01,South,180,1.0,4.0,48,0.00,,,0.00,0,WeatherCatV1.12B45,2013-02-06 03:30:00,
2013-02-05 20:35:00,31.9,14.5,30.01,South,180,1.0,4.0,48,0.00,,,0.00,0,WeatherCatV1.12B45,2013-02-06 03:35:00,
2013-02-05 20:40:00,31.9,14.5,30.01,South,180,1.0,4.0,48,0.00,,,0.00,0,WeatherCatV1.12B45,2013-02-06 03:40:00,
2013-02-05 20:45:00,31.8,14.8,30.01,SW,225,0.0,6.0,49,0.00,,,0.00,0,WeatherCatV1.12B45,2013-02-06 03:45:00,
2013-02-05 20:50:00,31.8,14.8,30.01,SW,225,0.0,6.0,49,0.00,,,0.00,0,WeatherCatV1.12B45,2013-02-06 03:50:00,
2013-02-05 20:55:00,31.8,14.8,30.01,SW,225,0.0,6.0,49,0.00,,,0.00,0,WeatherCatV1.12B45,2013-02-06 03:55:00,
2013-02-05 21:00:00,31.8,14.8,30.01,SW,225,0.0,6.0,49,0.00,,,0.00,0,WeatherCatV1.12B45,2013-02-06 04:00:00,
2013-02-05 21:05:00,32.8,14.3,30.00,NNW,338,1.0,6.0,46,0.00,,,0.00,0,WeatherCatV1.12B45,2013-02-06 04:05:00,
2013-02-05 21:10:00,32.8,14.3,30.00,NNW,338,1.0,6.0,46,0.00,,,0.00,0,WeatherCatV1.12B45,2013-02-06 04:10:00,
2013-02-05 21:15:00,32.8,14.3,30.00,NNW,338,1.0,6.0,46,0.00,,,0.00,0,WeatherCatV1.12B45,2013-02-06 04:15:00,
2013-02-05 21:20:00,35.0,14.3,30.01,NW,315,1.0,9.0,42,0.00,,,0.00,0,WeatherCatV1.12B45,2013-02-06 04:20:00,
2013-02-05 21:25:00,35.0,14.3,30.01,NW,315,1.0,9.0,42,0.00,,,0.00,0,WeatherCatV1.12B45,2013-02-06 04:25:00,
2013-02-05 21:30:00,35.0,14.3,30.01,NW,315,1.0,9.0,42,0.00,,,0.00,0,WeatherCatV1.12B45,2013-02-06 04:30:00,
2013-02-05 21:35:00,36.2,14.2,30.00,SW,225,1.0,8.0,40,0.00,,,0.00,0,WeatherCatV1.12B45,2013-02-06 04:35:00,
2013-02-05 21:40:00,36.2,14.2,30.00,SW,225,1.0,8.0,40,0.00,,,0.00,0,WeatherCatV1.12B45,2013-02-06 04:40:00,
2013-02-05 21:45:00,36.2,14.2,30.00,SW,225,1.0,8.0,40,0.00,,,0.00,0,WeatherCatV1.12B45,2013-02-06 04:45:00,
2013-02-05 21:50:00,35.8,14.4,30.00,SW,225,1.0,8.0,41,0.00,,,0.00,0,WeatherCatV1.12B45,2013-02-06 04:50:00,
2013-02-05 21:55:00,35.8,14.4,30.00,SW,225,1.0,8.0,41,0.00,,,0.00,0,WeatherCatV1.12B45,2013-02-06 04:55:00,
2013-02-05 22:00:00,35.8,14.4,30.00,SW,225,1.0,8.0,41,0.00,,,0.00,0,WeatherCatV1.12B45,2013-02-06 05:00:00,
2013-02-05 22:05:00,38.2,14.3,30.00,WNW,292,5.0,17.0,37,0.00,,,0.00,0,WeatherCatV1.12B45,2013-02-06 05:05:00,
2013-02-05 22:10:00,38.2,14.3,30.00,WNW,292,5.0,17.0,37,0.00,,,0.00,0,WeatherCatV1.12B45,2013-02-06 05:10:00,
2013-02-05 22:15:00,38.2,14.3,30.00,WNW,292,5.0,17.0,37,0.00,,,0.00,0,WeatherCatV1.12B45,2013-02-06 05:15:00,
2013-02-05 22:20:00,39.1,13.8,30.00,West,270,6.0,20.0,35,0.00,,,0.00,0,WeatherCatV1.12B45,2013-02-06 05:20:00,
2013-02-05 22:25:00,39.1,13.8,30.00,West,270,6.0,20.0,35,0.00,,,0.00,0,WeatherCatV1.12B45,2013-02-06 05:25:00,
2013-02-05 22:30:00,39.1,13.8,30.00,West,270,6.0,20.0,35,0.00,,,0.00,0,WeatherCatV1.12B45,2013-02-06 05:30:00,
2013-02-05 22:35:00,39.8,14.4,30.00,WNW,292,8.0,20.0,35,0.00,,,0.00,0,WeatherCatV1.12B45,2013-02-06 05:35:00,
2013-02-05 22:40:00,39.8,14.4,30.00,WNW,292,8.0,20.0,35,0.00,,,0.00,0,WeatherCatV1.12B45,2013-02-06 05:40:00,
2013-02-05 22:45:00,39.8,14.4,30.00,WNW,292,8.0,20.0,35,0.00,,,0.00,0,WeatherCatV1.12B45,2013-02-06 05:45:00,
2013-02-05 22:50:00,39.8,13.7,30.00,West,270,9.0,21.0,34,0.00,,,0.00,0,WeatherCatV1.12B45,2013-02-06 05:50:00,
2013-02-05 22:55:00,39.8,13.7,30.00,West,270,9.0,21.0,34,0.00,,,0.00,0,WeatherCatV1.12B45,2013-02-06 05:55:00,
2013-02-05 23:00:00,39.8,13.7,30.00,West,270,9.0,21.0,34,0.00,,,0.00,0,WeatherCatV1.12B45,2013-02-06 06:00:00,
2013-02-05 23:05:00,39.5,13.5,29.99,West,270,8.0,17.0,34,0.00,,,0.00,0,WeatherCatV1.12B45,2013-02-06 06:05:00,
2013-02-05 23:10:00,39.5,13.5,29.99,West,270,8.0,17.0,34,0.00,,,0.00,0,WeatherCatV1.12B45,2013-02-06 06:10:00,
2013-02-05 23:15:00,39.5,13.5,29.99,West,270,8.0,17.0,34,0.00,,,0.00,0,WeatherCatV1.12B45,2013-02-06 06:15:00,
2013-02-05 23:20:00,39.5,12.8,29.99,WNW,292,9.0,20.0,33,0.00,,,0.00,0,WeatherCatV1.12B45,2013-02-06 06:20:00,
2013-02-05 23:25:00,39.5,12.8,29.99,WNW,292,9.0,20.0,33,0.00,,,0.00,0,WeatherCatV1.12B45,2013-02-06 06:25:00,
2013-02-05 23:30:00,39.5,12.8,29.99,WNW,292,9.0,20.0,33,0.00,,,0.00,0,WeatherCatV1.12B45,2013-02-06 06:30:00,
2013-02-05 23:35:00,38.9,13.0,29.99,WSW,248,7.0,18.0,34,0.00,,,0.00,0,WeatherCatV1.12B45,2013-02-06 06:35:00,
2013-02-05 23:40:00,38.9,13.0,29.99,WSW,248,7.0,18.0,34,0.00,,,0.00,0,WeatherCatV1.12B45,2013-02-06 06:40:00,
2013-02-05 23:45:00,38.9,13.0,29.99,WSW,248,7.0,18.0,34,0.00,,,0.00,0,WeatherCatV1.12B45,2013-02-06 06:45:00,
2013-02-05 23:50:00,38.6,12.7,29.99,WSW,248,5.0,14.0,34,0.00,,,0.00,0,WeatherCatV1.12B45,2013-02-06 06:50:00,
2013-02-05 23:55:00,38.6,12.7,29.99,WSW,248,5.0,14.0,34,0.00,,,0.00,0,WeatherCatV1.12B45,2013-02-06 06:55:00,